UMU5410 ZSNJ-ZSSS

Flight info

Callsign UMU5410
Flight time 0h 28m
Altitude 14800
Route ESBAG R343 SASAN
Aircraft B737/M-SDE2E3FGILRWXY/LB2

Departure

Time 2026-04-25 04:39
Airport Nanjing Lukou International Airport (ZSNJ)

Arrival

Time 2026-04-25 05:08
Airport Shanghai Hongqiao International Airport (ZSSS)
Time Latitude Longitude Altitude Speed Heading
2026-04-25 04:29 31.73078 118.87072 56 ft 0 kts 328°
2026-04-25 04:30 31.73068 118.87080 56 ft 2 kts 327°
2026-04-25 04:30 31.73055 118.87089 56 ft 2 kts 328°
2026-04-25 04:30 31.73042 118.87098 56 ft 2 kts 327°
2026-04-25 04:30 31.73030 118.87107 56 ft 1 kts 328°
2026-04-25 04:31 31.73022 118.87114 56 ft 2 kts 318°
2026-04-25 04:31 31.73012 118.87128 56 ft 2 kts 298°
2026-04-25 04:31 31.73007 118.87144 56 ft 2 kts 279°
2026-04-25 04:31 31.73006 118.87161 56 ft 2 kts 262°
2026-04-25 04:32 31.73010 118.87177 56 ft 1 kts 243°
2026-04-25 04:32 31.73014 118.87184 56 ft 1 kts 236°
2026-04-25 04:32 31.73015 118.87186 56 ft 0 kts 238°
2026-04-25 04:34 31.72999 118.87156 56 ft 8 kts 239°
2026-04-25 04:34 31.72955 118.87071 56 ft 12 kts 236°
2026-04-25 04:34 31.72888 118.87074 56 ft 10 kts 147°
2026-04-25 04:34 31.72817 118.87126 56 ft 12 kts 153°
2026-04-25 04:35 31.72762 118.87072 56 ft 12 kts 238°
2026-04-25 04:35 31.72707 118.86969 56 ft 17 kts 238°
2026-04-25 04:35 31.72631 118.86826 56 ft 23 kts 239°
2026-04-25 04:35 31.72535 118.86649 56 ft 28 kts 238°
2026-04-25 04:36 31.72430 118.86451 56 ft 29 kts 238°
2026-04-25 04:36 31.72315 118.86237 56 ft 30 kts 238°
2026-04-25 04:36 31.72205 118.86030 56 ft 29 kts 238°
2026-04-25 04:36 31.72097 118.85829 56 ft 28 kts 238°
2026-04-25 04:37 31.71993 118.85635 56 ft 27 kts 237°
2026-04-25 04:37 31.71891 118.85442 56 ft 27 kts 238°
2026-04-25 04:37 31.71798 118.85270 56 ft 18 kts 237°
2026-04-25 04:37 31.71734 118.85181 56 ft 12 kts 193°
2026-04-25 04:38 31.71658 118.85219 56 ft 11 kts 146°
2026-04-25 04:38 31.71613 118.85290 56 ft 10 kts 81°
2026-04-25 04:38 31.71651 118.85372 56 ft 15 kts 58°
2026-04-25 04:38 31.71818 118.85688 56 ft 89 kts 58°
2026-04-25 04:39 31.72297 118.86585 88 ft 165 kts 59°
2026-04-25 04:39 31.72959 118.87830 765 ft 188 kts 59°
2026-04-25 04:39 31.73598 118.89075 1836 ft 178 kts 60°
2026-04-25 04:39 31.74268 118.90324 2579 ft 190 kts 58°
2026-04-25 04:40 31.75005 118.91679 3236 ft 209 kts 59°
2026-04-25 04:40 31.75798 118.93158 3968 ft 225 kts 59°
2026-04-25 04:40 31.76650 118.94763 4744 ft 241 kts 59°
2026-04-25 04:40 31.77553 118.96462 5719 ft 248 kts 59°
2026-04-25 04:41 31.78449 118.98149 6768 ft 250 kts 59°
2026-04-25 04:41 31.79369 118.99880 7766 ft 254 kts 58°
2026-04-25 04:41 31.80067 119.01758 8681 ft 258 kts 81°
2026-04-25 04:41 31.79929 119.03832 9621 ft 262 kts 106°
2026-04-25 04:42 31.79269 119.05862 10501 ft 269 kts 112°
2026-04-25 04:42 31.78570 119.07895 11375 ft 274 kts 110°
2026-04-25 04:42 31.77923 119.09995 12222 ft 279 kts 108°
2026-04-25 04:42 31.77306 119.12179 13094 ft 283 kts 107°
2026-04-25 04:43 31.76707 119.14380 13905 ft 289 kts 106°
2026-04-25 04:43 31.76089 119.16662 14583 ft 294 kts 106°
2026-04-25 04:43 31.75465 119.18961 14841 ft 297 kts 106°
2026-04-25 04:43 31.74834 119.21271 14879 ft 305 kts 107°
2026-04-25 04:44 31.74153 119.23750 14880 ft 334 kts 107°
2026-04-25 04:44 31.73407 119.26453 14874 ft 361 kts 107°
2026-04-25 04:44 31.72613 119.29322 14875 ft 383 kts 107°
2026-04-25 04:44 31.71775 119.32338 14871 ft 386 kts 107°
2026-04-25 04:45 31.70928 119.35322 14870 ft 387 kts 108°
2026-04-25 04:45 31.70067 119.38327 14867 ft 387 kts 108°
2026-04-25 04:45 31.69215 119.41322 14872 ft 387 kts 108°
2026-04-25 04:45 31.68374 119.44299 14871 ft 387 kts 108°
2026-04-25 04:46 31.67531 119.47305 14869 ft 388 kts 107°
2026-04-25 04:46 31.66687 119.50330 14870 ft 388 kts 107°
2026-04-25 04:46 31.65851 119.53323 14872 ft 388 kts 107°
2026-04-25 04:46 31.65013 119.56325 14870 ft 387 kts 107°
2026-04-25 04:47 31.64172 119.59332 14871 ft 387 kts 107°
2026-04-25 04:47 31.63337 119.62321 14871 ft 386 kts 107°
2026-04-25 04:47 31.62559 119.65311 14869 ft 387 kts 104°
2026-04-25 04:47 31.62027 119.68442 14872 ft 387 kts 98°
2026-04-25 04:48 31.61718 119.71564 14876 ft 386 kts 95°
2026-04-25 04:48 31.61525 119.74670 14874 ft 387 kts 93°
2026-04-25 04:48 31.61388 119.77829 14870 ft 386 kts 92°
2026-04-25 04:48 31.61270 119.80970 14873 ft 386 kts 92°
2026-04-25 04:49 31.61150 119.84128 14869 ft 386 kts 92°
2026-04-25 04:49 31.61024 119.87235 14868 ft 386 kts 92°
2026-04-25 04:49 31.60886 119.90416 14867 ft 386 kts 92°
2026-04-25 04:49 31.60744 119.93550 14872 ft 387 kts 92°
2026-04-25 04:50 31.60598 119.96671 14873 ft 387 kts 92°
2026-04-25 04:50 31.60446 119.99852 14875 ft 387 kts 93°
2026-04-25 04:50 31.60297 120.02956 14871 ft 387 kts 93°
2026-04-25 04:50 31.60143 120.06134 14870 ft 387 kts 93°
2026-04-25 04:51 31.59990 120.09282 14871 ft 387 kts 92°
2026-04-25 04:51 31.59835 120.12449 14873 ft 388 kts 92°
2026-04-25 04:51 31.59681 120.15605 14873 ft 387 kts 93°
2026-04-25 04:51 31.59533 120.18773 14875 ft 388 kts 92°
2026-04-25 04:52 31.59401 120.21930 14874 ft 388 kts 92°
2026-04-25 04:52 31.59266 120.25056 14878 ft 389 kts 92°
2026-04-25 04:52 31.59103 120.28238 14877 ft 388 kts 94°
2026-04-25 04:52 31.58810 120.31377 14878 ft 388 kts 98°
2026-04-25 04:53 31.58241 120.34456 14877 ft 387 kts 104°
2026-04-25 04:53 31.57450 120.37487 14879 ft 389 kts 108°
2026-04-25 04:53 31.56553 120.40482 14876 ft 390 kts 109°
2026-04-25 04:53 31.55613 120.43488 14681 ft 390 kts 110°
2026-04-25 04:54 31.54691 120.46433 14301 ft 382 kts 110°
2026-04-25 04:54 31.53803 120.49301 13788 ft 376 kts 109°
2026-04-25 04:54 31.52919 120.52187 13188 ft 373 kts 109°
2026-04-25 04:54 31.52054 120.55042 12573 ft 371 kts 109°
2026-04-25 04:55 31.51203 120.57871 11962 ft 369 kts 109°
2026-04-25 04:55 31.50355 120.60700 11349 ft 366 kts 109°
2026-04-25 04:55 31.49527 120.63465 10947 ft 357 kts 109°
2026-04-25 04:55 31.48715 120.66172 10765 ft 343 kts 109°
2026-04-25 04:56 31.47937 120.68766 10640 ft 328 kts 109°
2026-04-25 04:56 31.47203 120.71212 10497 ft 315 kts 109°
2026-04-25 04:56 31.46488 120.73594 10291 ft 305 kts 109°
2026-04-25 04:56 31.45790 120.75918 10065 ft 297 kts 109°
2026-04-25 04:57 31.45113 120.78168 9677 ft 296 kts 109°
2026-04-25 04:57 31.44429 120.80440 9287 ft 295 kts 109°
2026-04-25 04:57 31.43749 120.82696 8915 ft 292 kts 109°
2026-04-25 04:57 31.43070 120.84946 8556 ft 290 kts 109°
2026-04-25 04:58 31.42403 120.87151 8202 ft 287 kts 109°
2026-04-25 04:58 31.41743 120.89338 7846 ft 285 kts 110°
2026-04-25 04:58 31.41090 120.91496 7492 ft 283 kts 110°
2026-04-25 04:58 31.40438 120.93651 7137 ft 280 kts 109°
2026-04-25 04:59 31.39936 120.95856 6778 ft 278 kts 100°
2026-04-25 04:59 31.39718 120.98089 6442 ft 275 kts 95°
2026-04-25 04:59 31.39605 121.00294 6113 ft 272 kts 94°
2026-04-25 04:59 31.39501 121.02486 5772 ft 270 kts 94°
2026-04-25 05:00 31.39375 121.04688 5426 ft 267 kts 94°
2026-04-25 05:00 31.39237 121.06838 5106 ft 265 kts 95°
2026-04-25 05:00 31.39093 121.08967 4770 ft 262 kts 95°
2026-04-25 05:00 31.38949 121.11089 4437 ft 259 kts 95°
2026-04-25 05:01 31.38809 121.13165 4190 ft 253 kts 95°
2026-04-25 05:01 31.38674 121.15163 4106 ft 240 kts 95°
2026-04-25 05:01 31.38546 121.17059 4046 ft 229 kts 95°
2026-04-25 05:01 31.38420 121.18874 3983 ft 218 kts 95°
2026-04-25 05:02 31.38300 121.20624 3908 ft 214 kts 95°
2026-04-25 05:02 31.38208 121.22341 3758 ft 209 kts 92°
2026-04-25 05:02 31.38200 121.24023 3523 ft 207 kts 90°
2026-04-25 05:02 31.38216 121.25701 3318 ft 206 kts 90°
2026-04-25 05:03 31.38224 121.27369 3126 ft 203 kts 90°
2026-04-25 05:03 31.38224 121.29024 3060 ft 201 kts 91°
2026-04-25 05:03 31.38062 121.30626 3018 ft 202 kts 108°
2026-04-25 05:03 31.37237 121.31935 2931 ft 204 kts 145°
2026-04-25 05:04 31.35890 121.32467 2590 ft 211 kts 171°
2026-04-25 05:04 31.34381 121.32510 2081 ft 222 kts 178°
2026-04-25 05:04 31.32855 121.32533 1949 ft 207 kts 175°
2026-04-25 05:04 31.31521 121.32598 1951 ft 177 kts 174°
2026-04-25 05:05 31.30352 121.32666 1851 ft 164 kts 174°
2026-04-25 05:05 31.29243 121.32724 1595 ft 153 kts 174°
2026-04-25 05:05 31.28222 121.32784 1397 ft 139 kts 174°
2026-04-25 05:05 31.27272 121.32839 1235 ft 136 kts 174°
2026-04-25 05:06 31.26332 121.32892 1049 ft 133 kts 175°
2026-04-25 05:06 31.25390 121.32948 891 ft 137 kts 174°
2026-04-25 05:06 31.24442 121.32998 683 ft 133 kts 175°
2026-04-25 05:06 31.23506 121.33033 478 ft 134 kts 176°
2026-04-25 05:07 31.22596 121.33081 333 ft 132 kts 175°
2026-04-25 05:07 31.21665 121.33141 185 ft 135 kts 176°
2026-04-25 05:07 31.20720 121.33198 36 ft 135 kts 176°
2026-04-25 05:07 31.19863 121.33244 21 ft 97 kts 176°
2026-04-25 05:08 31.19398 121.33270 19 ft 44 kts 178°
2026-04-25 05:08 31.19163 121.33271 20 ft 21 kts 186°
2026-04-25 05:08 31.19023 121.33231 19 ft 20 kts 202°
2026-04-25 05:08 31.18916 121.33151 19 ft 15 kts 261°
2026-04-25 05:09 31.18920 121.33031 19 ft 12 kts 296°
2026-04-25 05:09 31.18999 121.33014 20 ft 11 kts 359°
2026-04-25 05:09 31.19075 121.33010 20 ft 10 kts 357°
2026-04-25 05:09 31.19142 121.33006 21 ft 9 kts 357°
2026-04-25 05:10 31.19205 121.33003 21 ft 9 kts 356°
2026-04-25 05:10 31.19242 121.32948 20 ft 9 kts 269°
2026-04-25 05:10 31.19238 121.32869 19 ft 10 kts 266°
2026-04-25 05:10 31.19236 121.32790 19 ft 4 kts 268°
2026-04-25 05:11 31.19251 121.32768 19 ft 4 kts 346°
2026-04-25 05:11 31.19279 121.32763 19 ft 4 kts 355°
2026-04-25 05:11 31.19307 121.32761 19 ft 4 kts 357°
2026-04-25 05:12 31.19328 121.32760 19 ft 0 kts 356°